STARLINK-1644 (46532 NORAD) Tracking and Keplerian Element Data

This shows tracking and keplerian element data for the satellite.

Feedback or suggestion? Click here.




ElementValue
Catalog46532
NameSTARLINK-1644
Epoch Orbit177
Epoch Day304.91667824
Epoch Year2020
RAAN321.9625
Inclination53
Eccentricity0.0001059
Argument of Perigee63.5974
Mean Anonmoly184.2757
Mean Motion15.62699874
Decay Rate0.00075263
L11 46532U 20070A 20304.91667824 .00075263 00000-0 82188-3 0 9994
L22 46532 53.0000 321.9625 0001059 63.5974 184.2757 15.62699874 1773

Live tracking and technical data element details for STARLINK-1644 (NORAD 46532). STARLINK-1644 can be tracked NOW for your location showing map with azimuth and elevation plus other details from your city location.

Track the satellite on the map from your city or location and see movement details for azimuth, elevation, latitude, longitude, range, height, and movement on the map or in text.







IsCatalogInMostPopularTable: catalog: 46532, numindb: 3
Update: records affected: 1



GetName: 46532 STARLINK-1644

Hit Count: updated at: Sat, 31 Oct 2020 11:21:42 GMT